CX5ACA-13 Weather Reports


time (UTC)temp
F
wind
direction
speed
knots
gust
knots
rain 1hr
in
rain 24hr
in
rain mn
in
humidity
%
barometer
mb
20260506051109 65 136 0.0 0.0 0.00 0.00 0.00 95 1015.3
20260506050608 66 142 0.0 0.0 0.00 0.00 0.00 95 1015.4
20260506050104 66 149 0.0 0.0 0.00 0.00 0.00 95 1015.4
20260506045058 66 154 0.0 0.0 0.00 0.00 0.00 95 1015.1
20260506044556 66 137 0.0 0.0 0.00 0.00 0.00 95 1015.1
20260506044052 66 137 0.0 0.0 0.00 0.00 0.00 95 1015.0
20260506043549 66 139 0.0 0.0 0.00 0.00 0.00 94 1015.3
20260506043048 66 135 0.0 0.0 0.00 0.00 0.00 94 1015.2
20260506042547 66 162 0.0 0.0 0.00 0.00 0.00 94 1015.2
20260506042044 66 155 0.0 0.9 0.00 0.00 0.00 94 1015.1
20260506041543 66 106 0.0 0.0 0.00 0.00 0.00 94 1015.0
20260506041039 66 123 0.0 0.0 0.00 0.00 0.00 93 1015.1
20260506040537 66 128 0.0 0.0 0.00 0.00 0.00 93 1014.9
20260506040032 66 85 0.0 0.0 0.00 0.00 0.00 93 1015.1
20260506035530 66 89 0.0 0.0 0.00 0.00 0.00 92 1015.1
20260506035026 66 126 0.0 0.0 0.00 0.00 0.00 92 1014.8
20260506034524 66 69 0.9 1.7 0.00 0.00 0.00 92 1014.8
20260506034021 66 134 0.0 0.0 0.00 0.00 0.00 91 1014.5
20260506033518 67 117 0.0 0.9 0.00 0.00 0.00 91 1014.2
20260506033015 66 134 0.0 0.0 0.00 0.00 0.00 91 1014.6
20260506032512 66 122 0.0 0.0 0.00 0.00 0.00 91 1014.4
20260506032008 66 107 0.9 0.9 0.00 0.00 0.00 91 1014.6
20260506031507 66 126 0.0 0.0 0.00 0.00 0.00 91 1014.5
20260506031003 66 139 0.0 0.0 0.00 0.00 0.00 91 1014.5
20260506030501 66 140 0.0 0.0 0.00 0.00 0.00 91 1014.8
20260506025958 66 130 0.0 0.0 0.00 0.00 0.00 91 1014.9
20260506025455 66 154 0.0 0.0 0.00 0.00 0.00 91 1015.0
20260506024951 66 103 0.0 0.0 0.00 0.00 0.00 91 1014.8
20260506024448 66 145 0.0 0.0 0.00 0.00 0.00 91 1015.0
20260506023944 66 114 0.0 0.0 0.00 0.00 0.00 91 1015.0
20260506023441 66 136 0.0 0.0 0.00 0.00 0.00 92 1015.0
20260506022938 66 120 0.0 0.0 0.00 0.00 0.00 92 1014.8
20260506022435 66 113 0.0 0.9 0.00 0.00 0.00 93 1014.7
20260506021933 66 84 0.0 0.0 0.00 0.00 0.00 93 1015.1
20260506021430 66 128 0.0 0.0 0.00 0.00 0.00 93 1014.9
20260506020927 66 136 0.0 0.0 0.00 0.00 0.00 93 1014.8
20260506020425 66 152 0.9 1.7 0.00 0.00 0.00 93 1015.1
20260506015922 67 153 0.0 0.0 0.00 0.00 0.00 92 1015.1
20260506015420 67 156 0.0 0.0 0.00 0.00 0.00 92 1015.0
20260506014916 67 166 0.0 0.0 0.00 0.00 0.00 91 1015.1
20260506014413 68 154 0.0 0.0 0.00 0.00 0.00 91 1015.0
20260506013910 68 201 1.7 1.7 0.00 0.00 0.00 92 1014.9
20260506013408 68 146 0.0 0.0 0.00 0.00 0.00 91 1014.5
20260506012903 68 135 0.0 0.0 0.00 0.00 0.00 91 1014.5
20260506012400 68 132 0.0 0.0 0.00 0.00 0.00 91 1014.5
20260506011857 68 123 0.0 0.0 0.00 0.00 0.00 91 1014.3
20260506011355 68 132 0.0 0.0 0.00 0.00 0.00 91 1014.0
20260506010852 68 130 0.0 0.0 0.00 0.00 0.00 90 1014.1
20260506010350 68 118 0.0 0.0 0.00 0.00 0.00 90 1014.1
20260506005846 68 106 0.9 0.9 0.00 0.00 0.00 90 1014.2
20260506005343 68 140 0.0 0.0 0.00 0.00 0.00 89 1014.2
20260506004839 68 107 0.0 0.0 0.00 0.00 0.00 89 1014.3
20260506004337 68 88 0.0 0.9 0.00 0.00 0.00 89 1014.3
20260506003833 68 113 0.0 0.9 0.00 0.00 0.00 89 1014.4
20260506003329 68 271 0.9 0.9 0.00 0.00 0.00 88 1014.5
20260506002826 68 121 0.0 0.0 0.00 0.00 0.00 88 1014.6
20260506002322 68 57 1.7 1.7 0.00 0.00 0.00 88 1014.7
20260506001818 68 100 0.0 0.0 0.00 0.00 0.00 87 1014.7
20260506001315 68 127 0.0 0.0 0.00 0.00 0.00 87 1014.7
20260506000812 68 129 0.0 0.0 0.00 0.00 0.00 87 1014.6
20260506000310 68 133 0.0 0.0 0.00 0.00 0.00 87 1015.0
20260505235806 68 120 0.0 0.0 0.00 0.00 0.00 87 1014.6
20260505235305 68 122 0.0 0.0 0.00 0.00 0.00 87 1014.5
20260505234801 68 138 0.0 0.0 0.00 0.00 0.00 87 1014.7
20260505234259 68 142 0.0 0.0 0.00 0.00 0.00 87 1014.5
20260505233755 68 143 0.0 0.0 0.00 0.00 0.00 86 1014.6
20260505233253 68 140 0.0 0.0 0.00 0.00 0.00 86 1014.5
20260505232750 68 131 0.0 0.0 0.00 0.00 0.00 85 1014.7
20260505232247 68 126 0.0 0.0 0.00 0.00 0.00 85 1014.8
20260505231743 69 128 0.0 0.0 0.00 0.00 0.00 85 1014.9
20260505231243 69 154 0.0 0.0 0.00 0.00 0.00 85 1014.6
20260505230741 69 143 0.0 0.0 0.00 0.00 0.00 85 1014.6
20260505230237 69 138 0.0 0.0 0.00 0.00 0.00 84 1014.6
20260505225734 69 60 0.9 1.7 0.00 0.00 0.00 84 1014.6
20260505225231 69 132 0.0 0.0 0.00 0.00 0.00 84 1014.8
20260505224726 69 145 0.0 0.0 0.00 0.00 0.00 84 1014.9
20260505224224 69 150 0.0 0.0 0.00 0.00 0.00 84 1014.7
20260505223721 69 133 0.0 0.0 0.00 0.00 0.00 84 1014.8
20260505223217 69 125 0.0 0.0 0.00 0.00 0.00 83 1014.8
20260505222713 69 134 0.0 0.0 0.00 0.00 0.00 83 1014.9
20260505222209 69 112 0.0 0.0 0.00 0.00 0.00 83 1014.8
20260505221707 69 122 0.0 0.0 0.00 0.00 0.00 83 1014.7
20260505221203 69 102 0.9 0.9 0.00 0.00 0.00 84 1014.9
20260505220700 69 103 0.0 0.0 0.00 0.00 0.00 84 1014.8
20260505220158 69 118 0.0 0.0 0.00 0.00 0.00 84 1014.7
20260505215655 69 131 0.0 0.0 0.00 0.00 0.00 84 1014.6
20260505215154 69 137 0.0 0.0 0.00 0.00 0.00 84 1014.4
20260505214651 69 135 0.0 0.0 0.00 0.00 0.00 83 1014.6
20260505214148 69 141 0.0 0.0 0.00 0.00 0.00 83 1014.5
20260505213646 69 145 0.0 0.0 0.00 0.00 0.00 83 1014.3
20260505213143 69 140 0.0 0.0 0.00 0.00 0.00 83 1014.2
20260505212638 70 126 0.0 0.0 0.00 0.00 0.00 83 1014.3
20260505212136 70 124 0.0 0.0 0.00 0.00 0.00 83 1014.5
20260505211633 70 130 0.0 0.0 0.00 0.00 0.00 83 1014.3
20260505211130 70 112 0.0 0.0 0.00 0.00 0.00 83 1014.5
20260505210627 70 145 0.0 0.0 0.00 0.00 0.00 84 1014.5
20260505210123 70 145 0.0 0.0 0.00 0.00 0.00 84 1014.5
20260505205621 70 149 0.0 0.0 0.00 0.00 0.00 85 1014.6
20260505205119 70 151 0.0 0.0 0.00 0.00 0.00 85 1014.6
20260505204616 70 152 0.0 0.0 0.00 0.00 0.00 85 1014.6
20260505204113 70 152 0.0 0.0 0.00 0.00 0.00 85 1014.5
20260505203609 70 152 0.0 0.0 0.00 0.00 0.00 85 1014.5
20260505203107 70 152 0.0 0.0 0.00 0.00 0.00 84 1014.4
20260505202602 70 152 0.0 0.0 0.00 0.00 0.00 84 1014.3
20260505202059 70 152 0.0 0.0 0.00 0.00 0.00 84 1014.4
20260505201555 70 154 0.0 0.0 0.00 0.00 0.00 84 1014.5
20260505201053 70 155 0.0 0.0 0.00 0.00 0.00 84 1014.6
20260505200551 70 163 0.0 0.0 0.00 0.00 0.00 84 1014.6
20260505200048 70 154 0.0 0.0 0.00 0.00 0.00 84 1014.6
20260505195544 70 155 0.0 0.0 0.00 0.00 0.00 83 1014.7
20260505195042 70 156 0.0 0.0 0.00 0.00 0.00 83 1014.7
20260505194538 71 197 0.0 0.0 0.00 0.00 0.00 82 1014.7
20260505194034 71 163 0.0 0.0 0.00 0.00 0.00 80 1014.5
20260505193531 72 164 0.0 0.0 0.00 0.00 0.00 80 1014.7
20260505193028 71 156 0.0 0.0 0.00 0.00 0.00 82 1014.6
20260505192527 70 149 0.0 0.0 0.00 0.00 0.00 82 1014.4
20260505192024 70 167 0.0 0.0 0.00 0.00 0.00 82 1014.3
20260505191522 70 173 0.9 0.9 0.00 0.00 0.00 83 1014.5
20260505191020 70 156 0.9 0.9 0.00 0.00 0.00 82 1014.4
20260505190514 71 157 0.9 0.9 0.00 0.00 0.00 81 1014.6
20260505190011 71 161 0.0 0.0 0.00 0.00 0.00 81 1014.4
20260505185508 71 152 0.0 0.0 0.00 0.00 0.00 81 1014.7
20260505185004 71 162 0.0 0.0 0.00 0.00 0.00 81 1014.6
20260505184501 71 185 0.0 0.9 0.00 0.00 0.00 80 1014.5
20260505183957 72 172 0.9 1.7 0.00 0.00 0.00 79 1014.5
20260505183454 73 152 0.0 0.0 0.00 0.00 0.00 78 1014.3
20260505182951 73 188 1.7 1.7 0.00 0.00 0.00 78 1014.5
20260505182448 73 185 0.9 1.7 0.00 0.00 0.00 77 1014.3
20260505181944 74 184 0.0 0.0 0.00 0.00 0.00 76 1014.5
20260505181442 73 140 0.0 0.0 0.00 0.00 0.00 76 1014.5
20260505180938 72 140 0.0 0.0 0.00 0.00 0.00 77 1014.4
20260505180434 71 164 0.0 0.0 0.00 0.00 0.00 78 1014.4
20260505175931 72 154 0.0 0.0 0.00 0.00 0.00 78 1014.5
20260505175428 71 144 0.0 0.0 0.00 0.00 0.00 79 1014.2
20260505174924 72 168 1.7 1.7 0.00 0.00 0.00 79 1014.4
20260505174422 74 180 0.9 0.9 0.00 0.00 0.00 76 1014.4
20260505173918 74 136 0.0 0.0 0.00 0.00 0.00 77 1014.2
20260505173414 74 102 0.0 0.0 0.00 0.00 0.00 76 1013.9
20260505172911 74 156 0.0 0.0 0.00 0.00 0.00 76 1014.0
20260505172409 74 335 1.7 2.6 0.00 0.00 0.00 75 1014.1
20260505171908 74 159 0.9 0.9 0.00 0.00 0.00 76 1014.0
20260505171406 74 120 0.0 0.9 0.00 0.00 0.00 75 1013.8
20260505170902 75 145 0.0 0.0 0.00 0.00 0.00 74 1014.0
20260505170359 75 292 0.9 0.9 0.00 0.00 0.00 73 1013.8
20260505165854 74 121 0.0 0.0 0.00 0.00 0.00 73 1014.1
20260505165350 74 102 0.0 0.0 0.00 0.00 0.00 73 1013.9
20260505164846 75 146 0.0 0.0 0.00 0.00 0.00 72 1014.1
20260505164343 75 97 0.0 0.0 0.00 0.00 0.00 70 1014.2
20260505163841 76 149 0.0 0.0 0.00 0.00 0.00 69 1014.1
20260505163340 75 140 0.9 0.9 0.00 0.00 0.00 72 1014.0
20260505162838 73 114 0.0 0.9 0.00 0.00 0.00 73 1013.5
20260505162334 72 195 1.7 1.7 0.00 0.00 0.00 76 1014.5
20260505161831 72 114 0.0 0.9 0.00 0.00 0.00 75 1015.0
20260505161328 72 116 0.0 0.0 0.00 0.00 0.00 75 1014.9
20260505160825 71 125 0.0 0.0 0.00 0.00 0.00 76 1015.1
20260505160323 72 300 1.7 1.7 0.00 0.00 0.00 75 1015.0
20260505153302 71 107 0.0 0.9 0.00 0.00 0.00 75 1015.4
20260505152800 71 153 0.9 0.9 0.00 0.00 0.00 75 1015.1
20260505152256 70 135 0.0 0.0 0.00 0.00 0.00 75 1015.3
20260505151755 70 126 0.9 0.9 0.00 0.00 0.00 76 1015.3
20260505151253 70 97 2.6 2.6 0.00 0.00 0.00 75 1015.4
20260505150750 70 113 0.0 0.9 0.00 0.00 0.00 74 1015.4
20260505150247 70 353 0.0 0.9 0.00 0.00 0.00 74 1015.2
20260505140217 67 83 0.9 1.7 0.00 0.00 0.00 79 1015.2
20260505130141 64 62 0.9 0.9 0.00 0.00 0.00 80 1015.4
20260505124631 64 60 1.7 2.6 0.00 0.00 0.00 80 1015.3
20260505124127 64 24 1.7 2.6 0.00 0.00 0.00 81 1015.2
20260505123623 63 34 0.9 0.9 0.00 0.00 0.00 80 1015.3
20260505123120 63 79 0.9 1.7 0.00 0.00 0.00 80 1015.1
20260505122617 63 105 0.0 0.0 0.00 0.00 0.00 80 1015.0
20260505122114 62 116 0.0 0.0 0.00 0.00 0.00 81 1015.0
20260505121610 62 85 0.0 0.0 0.00 0.00 0.00 81 1015.1
20260505121107 62 111 0.0 0.0 0.00 0.00 0.00 81 1015.0
20260505120604 62 115 0.0 0.0 0.00 0.00 0.00 81 1015.1
20260505120059 62 121 0.0 0.0 0.00 0.00 0.00 81 1015.0
20260505115554 62 148 0.0 0.0 0.00 0.00 0.00 81 1015.0
20260505115052 62 119 0.0 0.0 0.00 0.00 0.00 81 1014.9
20260505114548 62 100 0.0 0.0 0.00 0.00 0.00 80 1015.0
20260505114045 62 44 0.0 0.9 0.00 0.00 0.00 80 1015.0
20260505113541 62 121 0.0 0.0 0.00 0.00 0.00 80 1014.8
20260505113038 62 97 0.9 0.9 0.00 0.00 0.00 80 1014.8
20260505112534 62 121 0.0 0.0 0.00 0.00 0.00 79 1014.7
20260505112032 62 128 0.0 0.0 0.00 0.00 0.00 79 1014.7
20260505111526 62 129 0.0 0.0 0.00 0.00 0.00 79 1014.8
20260505111023 62 135 0.0 0.0 0.00 0.00 0.00 80 1014.6
20260505110519 62 136 0.0 0.0 0.00 0.00 0.00 80 1014.6
20260505101951 61 129 1.7 2.6 0.00 0.00 0.00 79 1014.1
20260505101449 61 85 0.0 0.9 0.00 0.00 0.00 79 1014.3
20260505100946 61 30 0.9 1.7 0.00 0.00 0.00 80 1014.0
20260505100443 61 41 0.0 0.9 0.00 0.00 0.00 79 1014.0
20260505095939 61 48 0.9 0.9 0.00 0.00 0.00 79 1014.0
20260505095436 61 108 0.0 0.9 0.00 0.00 0.00 78 1014.1
20260505094932 61 72 1.7 2.6 0.00 0.00 0.00 79 1014.0
20260505094429 61 103 0.0 0.9 0.00 0.00 0.00 79 1014.0
20260505093925 61 112 0.0 0.9 0.00 0.00 0.00 79 1013.8
20260505093422 61 102 0.0 0.9 0.00 0.00 0.00 79 1013.9
20260505092919 61 110 0.0 0.9 0.00 0.00 0.00 79 1013.9
20260505092417 61 109 0.0 0.9 0.00 0.00 0.00 79 1013.8
20260505091915 61 49 1.7 1.7 0.00 0.00 0.00 78 1013.5
20260505091412 61 63 0.9 0.9 0.00 0.00 0.00 78 1013.6
20260505090910 60 128 0.9 1.7 0.00 0.00 0.00 80 1013.3
20260505090408 60 98 0.0 0.9 0.00 0.00 0.00 80 1013.3
20260505085905 59 102 1.7 1.7 0.00 0.00 0.00 81 1013.4
20260505085403 59 55 0.0 0.9 0.00 0.00 0.00 81 1013.3
20260505084901 59 127 0.0 0.9 0.00 0.00 0.00 82 1013.1
20260505084359 58 122 0.9 1.7 0.00 0.00 0.00 82 1013.2
20260505083856 58 74 0.0 0.9 0.00 0.00 0.00 83 1013.2
20260505083354 58 83 0.0 0.9 0.00 0.00 0.00 83 1013.2
20260505082849 58 81 0.9 0.9 0.00 0.00 0.00 83 1013.1
20260505082346 58 99 0.0 0.0 0.00 0.00 0.00 83 1013.0
20260505081842 58 60 0.0 0.9 0.00 0.00 0.00 83 1013.1
20260505081339 58 117 0.0 0.0 0.00 0.00 0.00 83 1012.9
20260505080836 57 109 0.0 0.0 0.00 0.00 0.00 85 1013.1
20260505080332 57 127 0.0 0.0 0.00 0.00 0.00 86 1013.0
20260505075827 57 127 0.0 0.0 0.00 0.00 0.00 86 1012.8
20260505075325 57 127 0.0 0.0 0.00 0.00 0.00 85 1012.8
20260505074822 57 127 0.0 0.0 0.00 0.00 0.00 85 1012.8
20260505074319 57 137 0.0 0.0 0.00 0.00 0.00 86 1012.8
20260505073816 57 150 0.0 0.0 0.00 0.00 0.00 86 1012.7
20260505073314 56 153 0.0 0.0 0.00 0.00 0.00 87 1013.0
20260505072811 56 131 0.0 0.0 0.00 0.00 0.00 88 1012.9
20260505072307 56 134 0.0 0.0 0.00 0.00 0.00 88 1012.8
20260505071803 56 134 0.0 0.0 0.00 0.00 0.00 88 1012.8
20260505071300 56 134 0.0 0.0 0.00 0.00 0.00 88 1012.8
20260505070758 56 134 0.0 0.0 0.00 0.00 0.00 87 1012.9
20260505070254 56 133 0.0 0.0 0.00 0.00 0.00 87 1012.8
20260505065749 57 133 0.0 0.0 0.00 0.00 0.00 86 1012.6
20260505065246 57 136 0.0 0.0 0.00 0.00 0.00 86 1012.9
20260505064743 57 136 0.0 0.0 0.00 0.00 0.00 86 1012.9
20260505064241 57 137 0.0 0.0 0.00 0.00 0.00 85 1012.9
20260505063738 57 131 0.0 0.0 0.00 0.00 0.00 85 1013.0
20260505063234 57 128 0.0 0.0 0.00 0.00 0.00 85 1012.8
20260505062731 57 121 0.0 0.0 0.00 0.00 0.00 85 1013.1
20260505062229 57 134 0.0 0.0 0.00 0.00 0.00 86 1013.1
20260505061725 57 134 0.0 0.0 0.00 0.00 0.00 85 1013.0
20260505061223 57 134 0.0 0.0 0.00 0.00 0.00 85 1013.2
20260505060720 58 133 0.0 0.0 0.00 0.00 0.00 84 1013.3
20260505060217 58 133 0.0 0.0 0.00 0.00 0.00 83 1013.0